Hourly Weather Rudnya-Karpylivs'ka

Today, 21 April, Wednesday

Time Temperature Precipitation Wind Pressure Humidity
00:00 +7°C° 0 mm 1 mps 743 mmHg 83%
01:00 +7°C° 0 mm 1 mps 743 mmHg 82%
02:00 +7°C° 0 mm 1 mps 743 mmHg 82%
03:00 +6°C° 0.1 mm 2 mps 743 mmHg 84%
04:00 +6°C° 0.1 mm 2 mps 743 mmHg 86%
05:00 +6°C° 0.1 mm 2 mps 743 mmHg 88%
06:00 +6°C° 0.2 mm 2 mps 743 mmHg 87%
07:00 +6°C° 0.2 mm 2 mps 744 mmHg 86%
08:00 +7°C° 0.2 mm 2 mps 744 mmHg 85%
09:00 +8°C° 0.2 mm 2 mps 744 mmHg 78%
10:00 +10°C° 0.2 mm 3 mps 743 mmHg 71%
11:00 +12°C° 0.2 mm 3 mps 743 mmHg 64%
12:00 +12°C° 0.4 mm 3 mps 743 mmHg 59%
13:00 +13°C° 0.4 mm 3 mps 743 mmHg 55%
14:00 +14°C° 0.4 mm 3 mps 743 mmHg 50%
15:00 +14°C° 0.3 mm 3 mps 743 mmHg 54%
16:00 +14°C° 0.3 mm 3 mps 743 mmHg 57%
17:00 +13°C° 0.3 mm 3 mps 743 mmHg 61%
18:00 +12°C° 0.3 mm 3 mps 743 mmHg 68%
19:00 +10°C° 0.3 mm 3 mps 743 mmHg 76%
20:00 +9°C° 0.3 mm 2 mps 743 mmHg 84%
21:00 +8°C° 0.5 mm 2 mps 743 mmHg 87%
22:00 +8°C° 0.5 mm 3 mps 744 mmHg 90%
23:00 +7°C° 0.5 mm 3 mps 744 mmHg 92%

Tomorrow, 22 April, Thursday

Time Temperature Precipitation Wind Pressure Humidity
00:00 +7°C° 0.1 mm 3 mps 744 mmHg 93%
01:00 +7°C° 0.1 mm 3 mps 744 mmHg 93%
02:00 +6°C° 0.1 mm 4 mps 744 mmHg 93%
03:00 +6°C° 0 mm 4 mps 744 mmHg 93%
04:00 +5°C° 0 mm 3 mps 744 mmHg 94%
05:00 +5°C° 0 mm 3 mps 744 mmHg 95%
06:00 +6°C° 0 mm 4 mps 744 mmHg 89%
07:00 +8°C° 0 mm 4 mps 744 mmHg 84%
08:00 +10°C° 0 mm 4 mps 745 mmHg 79%
09:00 +10°C° 0.2 mm 5 mps 745 mmHg 73%
10:00 +12°C° 0.2 mm 5 mps 745 mmHg 67%
11:00 +14°C° 0.2 mm 5 mps 745 mmHg 61%
12:00 +13°C° 0.5 mm 5 mps 745 mmHg 67%
13:00 +12°C° 0.5 mm 5 mps 745 mmHg 73%
14:00 +10°C° 0.5 mm 5 mps 744 mmHg 79%
15:00 +10°C° 0.9 mm 5 mps 745 mmHg 81%
16:00 +9°C° 0.9 mm 5 mps 745 mmHg 83%
17:00 +8°C° 0.9 mm 4 mps 745 mmHg 85%
18:00 +8°C° 0.5 mm 4 mps 745 mmHg 85%
19:00 +8°C° 0.5 mm 3 mps 746 mmHg 85%
20:00 +7°C° 0.5 mm 2 mps 746 mmHg 86%
21:00 +7°C° 0 mm 3 mps 746 mmHg 87%
22:00 +5°C° 0 mm 3 mps 747 mmHg 88%
23:00 +5°C° 0 mm 3 mps 747 mmHg 89%

Day after tomorrow, 23 April, Friday

Time Temperature Precipitation Wind Pressure Humidity
00:00 +4°C° 0 mm 3 mps 747 mmHg 89%
01:00 +4°C° 0 mm 2 mps 747 mmHg 89%
02:00 +4°C° 0 mm 2 mps 747 mmHg 89%
03:00 +4°C° 0 mm 2 mps 747 mmHg 88%
04:00 +3°C° 0 mm 2 mps 747 mmHg 87%
05:00 +3°C° 0 mm 2 mps 747 mmHg 86%
06:00 +3°C° 0 mm 3 mps 747 mmHg 81%
07:00 +3°C° 0 mm 3 mps 747 mmHg 77%
08:00 +4°C° 0 mm 4 mps 747 mmHg 72%
09:00 +5°C° 0 mm 4 mps 747 mmHg 65%
10:00 +6°C° 0 mm 4 mps 747 mmHg 58%
11:00 +7°C° 0 mm 5 mps 747 mmHg 52%
12:00 +8°C° 0 mm 5 mps 747 mmHg 49%
13:00 +8°C° 0 mm 5 mps 747 mmHg 47%
14:00 +8°C° 0 mm 5 mps 747 mmHg 45%
15:00 +8°C° 0.1 mm 5 mps 747 mmHg 46%
16:00 +8°C° 0.1 mm 5 mps 747 mmHg 48%
17:00 +7°C° 0.1 mm 5 mps 747 mmHg 49%
18:00 +6°C° 0 mm 4 mps 747 mmHg 57%
19:00 +4°C° 0 mm 3 mps 747 mmHg 64%
20:00 +4°C° 0 mm 2 mps 748 mmHg 71%
21:00 +2°C° 0 mm 3 mps 748 mmHg 75%
22:00 +2°C° 0 mm 3 mps 748 mmHg 78%
23:00 +1°C° 0 mm 3 mps 748 mmHg 81%

24 April, Saturday

Time Temperature Precipitation Wind Pressure Humidity
00:00 +1°C° 0 mm 3 mps 748 mmHg 83%
01:00 +1°C° 0 mm 3 mps 748 mmHg 86%
02:00 0°C° 0 mm 3 mps 748 mmHg 89%
03:00 0°C° 0 mm 3 mps 748 mmHg 88%
04:00 0°C° 0 mm 3 mps 748 mmHg 87%
05:00 -1°C° 0 mm 4 mps 748 mmHg 86%
06:00 0°C° 0 mm 4 mps 748 mmHg 79%
07:00 0°C° 0 mm 5 mps 748 mmHg 73%
08:00 +1°C° 0 mm 6 mps 748 mmHg 66%
09:00 +2°C° 0.1 mm 6 mps 748 mmHg 65%
10:00 +2°C° 0.1 mm 6 mps 749 mmHg 64%
11:00 +3°C° 0.1 mm 6 mps 749 mmHg 63%
12:00 +3°C° 0.2 mm 6 mps 748 mmHg 60%
13:00 +4°C° 0.2 mm 6 mps 748 mmHg 58%
14:00 +6°C° 0.2 mm 5 mps 748 mmHg 56%
15:00 +6°C° 0.3 mm 5 mps 748 mmHg 56%
16:00 +6°C° 0.3 mm 5 mps 748 mmHg 57%
17:00 +6°C° 0.3 mm 5 mps 748 mmHg 58%
18:00 +5°C° 0.1 mm 4 mps 748 mmHg 64%
19:00 +3°C° 0.1 mm 3 mps 748 mmHg 70%
20:00 +2°C° 0.1 mm 3 mps 748 mmHg 76%
21:00 +2°C° 0 mm 3 mps 748 mmHg 79%
22:00 +1°C° 0 mm 3 mps 748 mmHg 83%
23:00 0°C° 0 mm 3 mps 748 mmHg 87%

25 April, Sunday

Time Temperature Precipitation Wind Pressure Humidity
00:00 0°C° 0 mm 3 mps 748 mmHg 88%
01:00 0°C° 0 mm 3 mps 748 mmHg 90%
02:00 -1°C° 0 mm 3 mps 748 mmHg 91%
03:00 -1°C° 0 mm 3 mps 748 mmHg 92%
04:00 -2°C° 0 mm 3 mps 748 mmHg 93%
05:00 -2°C° 0 mm 3 mps 748 mmHg 93%
06:00 -2°C° 0 mm 4 mps 748 mmHg 85%
07:00 -1°C° 0 mm 4 mps 748 mmHg 78%
08:00 0°C° 0 mm 5 mps 748 mmHg 70%
09:00 +1°C° 0 mm 5 mps 748 mmHg 66%
10:00 +2°C° 0 mm 6 mps 748 mmHg 63%
11:00 +2°C° 0 mm 6 mps 748 mmHg 59%
12:00 +3°C° 0.2 mm 6 mps 748 mmHg 56%
13:00 +4°C° 0.2 mm 6 mps 748 mmHg 53%
14:00 +5°C° 0.2 mm 6 mps 748 mmHg 50%
15:00 +5°C° 0.1 mm 6 mps 748 mmHg 51%
16:00 +6°C° 0.1 mm 5 mps 747 mmHg 51%
17:00 +6°C° 0.1 mm 5 mps 747 mmHg 52%
18:00 +4°C° 0 mm 4 mps 747 mmHg 59%
19:00 +3°C° 0 mm 3 mps 748 mmHg 66%
20:00 +2°C° 0 mm 3 mps 748 mmHg 73%
21:00 +1°C° 0 mm 3 mps 748 mmHg 76%
22:00 0°C° 0 mm 3 mps 748 mmHg 80%
23:00 0°C° 0 mm 3 mps 748 mmHg 83%

26 April, Monday

Time Temperature Precipitation Wind Pressure Humidity
00:00 -1°C° 0 mm 2 mps 748 mmHg 86%
01:00 -1°C° 0 mm 2 mps 748 mmHg 88%
02:00 -2°C° 0 mm 2 mps 747 mmHg 90%
03:00 -2°C° 0 mm 2 mps 747 mmHg 90%
04:00 -2°C° 0 mm 2 mps 747 mmHg 89%
05:00 -2°C° 0 mm 2 mps 748 mmHg 89%
06:00 -1°C° 0 mm 3 mps 748 mmHg 82%
07:00 +1°C° 0 mm 3 mps 748 mmHg 75%
08:00 +1°C° 0 mm 4 mps 748 mmHg 69%
09:00 +1°C° 0 mm 4 mps 748 mmHg 65%
10:00 +2°C° 0 mm 5 mps 748 mmHg 62%
11:00 +3°C° 0 mm 5 mps 748 mmHg 59%
12:00 +3°C° 0.1 mm 5 mps 748 mmHg 58%
13:00 +3°C° 0.1 mm 5 mps 748 mmHg 57%
14:00 +5°C° 0.1 mm 5 mps 748 mmHg 56%
15:00 +5°C° 0 mm 5 mps 748 mmHg 56%
16:00 +5°C° 0 mm 5 mps 748 mmHg 55%
17:00 +5°C° 0 mm 4 mps 748 mmHg 55%
18:00 +4°C° 0 mm 4 mps 748 mmHg 64%
19:00 +3°C° 0 mm 3 mps 748 mmHg 72%
20:00 +2°C° 0 mm 2 mps 748 mmHg 81%
21:00 +2°C° 0 mm 2 mps 748 mmHg 83%
22:00 +1°C° 0 mm 2 mps 748 mmHg 86%
23:00 +1°C° 0 mm 2 mps 748 mmHg 88%
Show more